Location: Cheyres
(46.8153°N, 6.7877°E)
Time: 04:20:15
(UTC+00:00)

CUBEBUG 2 - Pass Details

Date: 28 June 2022
Orbit: 584 x 693 km, 97.7° (Epoch: 07 August)

Event Time Altitude Azimuth Distance (km) Brightness Sun altitude
Rises 02:41:27 0° 12° (NNE) 2,823 ? -8.4°
Reaches altitude 10° 02:43:36 10° 12° (NNE) 1,923 ? -8.1°
Maximum altitude 02:47:46 87° 287° (WNW) 602 ? -7.6°
Drops below altitude 10° 02:51:59 10° 196° (SSW) 1,945 ? -7.1°
Enters shadow 02:52:55 - 196° (SSW) 2,332 ? -7.0°
